Regional Weather Roundup
Issued by NWS Jackson, KY

Home | Current Version | Previous Version | Text Only | Print | Product List | Glossary On
Versions: 1 2 3 4 5 6 7 8 9 10 11 12 13 14 15 16 17 18 19 20 21 22 23 24 25 26 27 28 29 30 31 32 33 34 35 36 37 38 39 40 41 42 43 44 45 46 47 48 49 50
000
ASUS43 KJKL 261410
RWRJKL

EAST KENTUCKY HOURLY WEATHER ROUNDUP
NATIONAL WEATHER SERVICE JACKSON KY
1000 AM EDT MON JUN 26 2017

NOTE: "FAIR" INDICATES FEW OR NO CLOUDS BELOW 12,000 FEET WITH
NO SIGNIFICANT WEATHER AND/OR OBSTRUCTIONS TO VISIBILITY.

* THESE REPORTS ARE NOT UNDER NWS QUALITY CONTROL AND MAY NOT
  REPORT WEATHER SUCH AS PRECIPITATION AND FOG.

KYZ079-080-083-085-087-088-110-112-115-119-120-261500
...EASTERN KENTUCKY...

CITY           SKY/WX    TMP DP  RH WIND       PRES   REMARKS
JACKSON        SUNNY     66  53  63 VRB3      30.19F
LONDON         CLOUDY    66  53  63 CALM      30.20S
SOMERSET*      SUNNY     66  52  59 CALM      30.22S
MONTICELLO*    CLOUDY    69  56  62 NW8       30.22S
WILLIAMSBURG*  CLOUDY    64  57  77 CALM      30.21S
MIDDLESBORO*   MOSUNNY   64  55  71 CALM      30.22S
HARLAN APT*    CLOUDY    64  54  68 CALM      30.22R
PIKE CO APT*     N/A     65  55  70 CALM      30.18F
BIG SANDY APT* SUNNY     67  55  65 NW3       30.17F
MOREHEAD APT*  HAZE      66  52  59 NW6       30.20S VSB 1/2
$$

KYZ035-036-041-042-044-050-067-078-099-261500
...CENTRAL KENTUCKY...

CITY           SKY/WX    TMP DP  RH WIND       PRES   REMARKS
MT STERLING*   SUNNY     68  50  52 N7        30.21R
FLEMING/MASON* SUNNY     66  50  57 NW9       30.20R
DANVILLE*      CLOUDY    68  52  56 N6        30.22S
LEXINGTON      SUNNY     69  50  50 NW6       30.20S
FRANKFORT      SUNNY     69  48  47 W3        30.19S
LOUISVILLE     MOSUNNY   71  49  45 CALM      30.20R
LEBANON*         N/A    N/A N/A N/A MISG        N/A
GLASGOW*       SUNNY     70  51  51 N3        30.21S
BOWLING GREEN  SUNNY     71  53  52 N5        30.22R
$$

KYZ091>093-OHZ055-061-077-WVZ005-015-034-035-042-261500
...SOUTHERN OHIO/WEST VIRGINIA...

CITY           SKY/WX    TMP DP  RH WIND       PRES   REMARKS
COVINGTON      MOSUNNY   65  52  62 SW7       30.18R
COLUMBUS       MOSUNNY   66  52  60 W12       30.11S
DAYTON         MOSUNNY   65  52  62 W10       30.16R
WILMINGTON     SUNNY     64  52  64 W15       30.15S
HUNTINGTON     SUNNY     69  52  54 NW8       30.15F
CHARLESTON     SUNNY     69  53  56 SW8G17    30.14S
PINEVILLE*     SUNNY     68  54  60 MISG      30.23F
BECKLEY        SUNNY     66  47  50 W7        30.20S
BLUEFIELD      SUNNY     63  47  55 W7        30.22S
LOGAN CO APT*    N/A     68  55  64 VRB5      30.17F
$$

VAZ002-007-008-TNZ017-027-036-066-071-261500
...SOUTHWEST VIRGINIA/EAST TENNESSEE...

CITY           SKY/WX    TMP DP  RH WIND       PRES   REMARKS
WISE*          CLOUDY    64  50  59 CALM      30.23F
JONESVILLE*      N/A     66  52  59 CALM      30.23S
ABINGDON*      SUNNY     67  55  64 SW5       30.22S
BRISTOL        MOSUNNY   67  55  65 CALM      30.20F
MORRISTOWN*    SUNNY     70  54  56 W3        30.19S
SEVIERVILLE*   SUNNY     68  54  60 W3        30.20S
KNOXVILLE      CLOUDY    64  57  78 SW3       30.21R
LAFOLLETTE*    SUNNY     70  57  64 CALM      30.23S
OAK RIDGE      CLOUDY    69  56  62 CALM      30.21S
CROSSVILLE     SUNNY     69  53  56 W5        30.24S
NASHVILLE      CLOUDY    69  54  58 N7        30.22S
$$

...KEY TO REMARKS...
VSB - VISIBILITY IN MILES
WCI - WIND CHILL INDEX
HX  - HEAT INDEX

$$



USA.gov is the U.S. government's official web portal to all federal, state and local government web resources and services.